Погода в Пятине

Россия / Республика Мордовия     54°19′51″N   45°28′41″E
темп.,
°C
ветер,
м/с
пор.,
м/с
влажн.,
%
обл.,
%
осадки,
мм/ч
давл.,
гПа
погр.,
м
17 апреля, сб
сб1700:00+9в613848 0.0 1022307
03:00+8всв512845 0.0 1022237
06:00+7всв6128695 0.0 1022283
09:00+12в7107334 0.0 1022428
12:00+16в89595 0.0 1021851
15:00+16в78545 0.0 10211166
18:00+13всв812605 0.0 1020624
21:00+9в7146432 0.0 1021374
18 апреля, вс
вс1800:00+7в61462100 0.1 1021350
03:00+6всв4966100 0.4 1022224
06:00+5всв51166100 0.0 1021321
09:00+8в61058100 0.2 1021517
12:00+9в5956100 0.1 1021701
15:00+7всв3875100 4.3 1022660
18:00+6всв51188100 6.4 1023518
21:00+7св3880100 6.9 1022188
19 апреля, пн
пн1900:00+7всв51078100 0.2 1023321
03:00+6всв61287100 0.3 1023489
06:00+5всв61282100 0.0 1024482
09:00+6в71169100 0.0 1025653
12:00+9в81058100 0.0 10241074
15:00+9в81053100 0.0 10241259
18:00+7в81165100 0.0 1025977
21:00+5в7137291 0.0 1025750
20 апреля, вт
вт2000:00+4в7147888 0.0 1025594
03:00+4в71479100 0.0 1025676
06:00+4вюв8148090 0.0 1025728
09:00+5вюв8137799 0.0 1024806
12:00+8вюв101368100 0.0 1023970
15:00+8вюв91469100 0.0 10221011
18:00+7вюв101672100 0.0 1021925
21:00+5вюв101970100 0.0 1020836
21 апреля, ср
ср2100:00+5вюв112180100 1.6 1018699
03:00+5юв122388100 4.9 1016700
06:00+5юв112189100 1.8 1015891
09:00+6ююв91889100 2.2 1016822
12:00+7ююв91686100 0.0 1017837
15:00+6ююв81590100 0.0 1018737
18:00+5ююв71492100 0.0 1020612
21:00+5ююв61294100 0.1 1021496